This is the latest recevied weather packets stored in our database for station/object W0CHP-13. If no packets are shown the sender has not sent any weather packets the latest 1 day(s).
| Time | Temp. | Humidity | Pressure | Rain* | Wind** | Luminosity | Snow |
|---|---|---|---|---|---|---|---|
| 1778062397 | 3.89° C | 53% | 1012.7 hPa | 0 mm | 0.45 m/s, 239° | 0 W/m² | - |
| 1778061795 | 4.44° C | 53% | 1012.5 hPa | 0 mm | 0 m/s | 0 W/m² | - |
| 1778061198 | 4.44° C | 53% | 1012.5 hPa | 0 mm | 0 m/s | 0 W/m² | - |
| 1778060596 | 4.44° C | 53% | 1012.3 hPa | 0 mm | 0.45 m/s, 298° | 0 W/m² | - |
| 1778059998 | 4.44° C | 53% | 1012.1 hPa | 0 mm | 0.89 m/s, 40° | 0 W/m² | - |
| 1778059396 | 5° C | 53% | 1012 hPa | 0 mm | 0.45 m/s, 292° | 0 W/m² | - |
| 1778058798 | 5° C | 54% | 1012 hPa | 0 mm | 0.45 m/s, 313° | 0 W/m² | - |
| 1778058196 | 5° C | 51% | 1012 hPa | 0 mm | 0.45 m/s, 321° | 0 W/m² | - |
| 1778057595 | 5° C | 51% | 1012 hPa | 0 mm | 0.45 m/s, 260° | 0 W/m² | - |
| 1778056997 | 5° C | 50% | 1012 hPa | 0 mm | 0.89 m/s, 280° | 0 W/m² | - |
| 1778056395 | 5.56° C | 50% | 1011.6 hPa | 0 mm | 0 m/s | 0 W/m² | - |
| 1778055797 | 5.56° C | 49% | 1011.6 hPa | 0 mm | 0.45 m/s, 288° | 0 W/m² | - |
| 1778055195 | 5.56° C | 49% | 1011.6 hPa | 0 mm | 0.45 m/s, 303° | 0 W/m² | - |
| 1778054598 | 5.56° C | 50% | 1011.6 hPa | 0 mm | 1.34 m/s, 330° | 0 W/m² | - |
| 1778053996 | 6.11° C | 49% | 1011.6 hPa | 0 mm | 0.89 m/s, 253° | 0 W/m² | - |
| 1778053398 | 6.11° C | 49% | 1011.5 hPa | 0 mm | 0.89 m/s, 251° | 0 W/m² | - |
| 1778052796 | 6.11° C | 47% | 1011.6 hPa | 0 mm | 0.45 m/s, 259° | 0 W/m² | - |
| 1778052199 | 6.11° C | 47% | 1011.3 hPa | 0 mm | 0.45 m/s, 264° | 0 W/m² | - |
| 1778051597 | 6.11° C | 47% | 1011 hPa | 0 mm | 0 m/s | 0 W/m² | - |
| 1778050995 | 6.67° C | 46% | 1011 hPa | 0 mm | 0.45 m/s, 306° | 0 W/m² | - |
| 1778050397 | 6.67° C | 46% | 1011 hPa | 0 mm | 0.89 m/s, 357° | 0 W/m² | - |
| 1778049795 | 6.67° C | 47% | 1011 hPa | 0 mm | 0.45 m/s, 270° | 0 W/m² | - |
| 1778049197 | 6.67° C | 45% | 1010.8 hPa | 0 mm | 0.89 m/s, 266° | 0 W/m² | - |
| 1778048596 | 6.67° C | 44% | 1011 hPa | 0 mm | 0 m/s | 0 W/m² | - |
| 1778047998 | 7.22° C | 44% | 1010.8 hPa | 0 mm | 0.45 m/s, 290° | 0 W/m² | - |
* Rain latest hour (hover to see other rain measurements)
** Current wind speed in m/s (hover to see current wind gust speed)